www.pogodaiklimat.ru
ПОГОДА в Трентоне
Время
и дата
19:00 11.04
19:37 11.04
19:53 11.04
20:07 11.04
20:53 11.04
21:14 11.04
21:22 11.04
21:50 11.04
21:53 11.04
22:53 11.04
23:50 11.04
23:53 11.04
00:53 12.04
01:53 12.04
02:16 12.04
02:20 12.04
02:28 12.04
02:31 12.04
02:46 12.04
02:53 12.04
03:53 12.04
04:14 12.04
04:53 12.04
05:05 12.04
05:41 12.04
05:53 12.04
06:25 12.04
06:53 12.04
06:56 12.04
07:06 12.04
07:10 12.04
07:25 12.04
07:27 12.04
07:34 12.04
07:53 12.04
08:40 12.04
08:53 12.04
08:58 12.04
09:53 12.04
10:05 12.04
10:12 12.04
10:16 12.04
10:20 12.04
10:43 12.04
10:53 12.04
11:02 12.04
11:53 12.04
12:00 12.04
Ветер
(напр.,м/с)
Видим. Явления Облачность Т
(С)
Тd
(С)
f
(%)
Тe
(С)
Тes
(С)
Комфортность P
(гПа)
Po
(гПа)
Тmin
(С)
Tmax
(С)
R
(мм)
R24
(мм)
S
(см)
Ю 6
{10}
16 км 10/10 210 м +16.7 +15.6 93 +16 +16 998.4 TN
Ю 7 11 км 10/10 300 м +17.2 +16.1 93 +16 +16 997.7 TN
Ю 6
{10}
11 км слабый дождь 10/10 300 m
[Ns]
+17.2 +16.1 93 +16 +16 1004.7 997.7 TN
ЮВ 6 6 км слабый дождь, дымка 10/10 270 m
[Ns]
+17.2 +16.1 93 +16 +16 997.4 TN
ЮВ 8
{12}
11 км слабый дождь 10/10 240 m
[Ns]
+16.7 +16.1 96 +15 +15 1004.1 997.0 TN
ЮВ 7
{10}
16 км 10/10 300 м +16.7 +15.6 93 +15 +15 996.7 TN
ЮВ 7
{11}
16 км 10/10 240 м +16.7 +15.6 93 +15 +15 996.4 TN
ЮВ 8
{12}
14 км 10/10 300 м +17.0 +16.0 94 +16 +16 996.0 TN
ЮВ 8
{12}
10 км дымка 10/10 300 м +16.7 +15.6 93 +15 +15 1002.8 995.7 TN 1.0
ЮВ 8
{12}
11 км слабый дождь 10/10 270 m
[Ns]
+16.7 +16.1 96 +15 +15 1001.3 994.3 TN
Ю 8
{15}
10 км слабый дождь, дымка 10/10 330 m
[Ns]
+17.0 +16.0 94 +16 +16 993.7 TN
Ю 8
{14}
11 км слабый дождь 10/10 330 m
[Ns]
+17.2 +16.1 93 +16 +16 1000.4 993.3 TN
Ю 8
{16}
13 км слабый дождь 10/10 360 m
[Ns]
+17.8 +16.1 90 +17 +17 998.6 991.6 TN +17.8 2.5
Ю 10
{17}
11 км слабый дождь 10/10 300 m
[Ns]
+17.2 +16.1 93 +16 +16 996.7 989.6 TN
Ю 6
{13}
5 км гроза, дождь, дымка 10/10 270 m
[Cb]
+17.2 +16.1 93 +16 +16 988.6 TN
Ю 7
{13}
4 км гроза с сильным дождем, дымка 10/10 270 m
[Cb]
+17.2 +16.1 93 +16 +16 989.3 TN
Ю 5
{11}
3 км гроза с дождем, дымка 10/10 210 m
[Cb]
+17.2 +16.7 97 +17 +17 989.0 TN
Ю 6
{12}
5 км гроза со слабым дождем, дымка 10/10 210 m
[Cb]
+17.2 +16.7 97 +16 +16 989.0 TN
ЮВ 6
{10}
10 км слабый дождь, дымка 10/10 270 m
[Ns]
+17.2 +16.1 93 +16 +16 987.9 TN
Ю 8
{13}
16 км 10/10 210 м +17.2 +16.7 97 +16 +16 994.8 987.9 TN
Ю 9
{15}
16 км 10/10 390 м +17.2 +16.1 93 +16 +16 994.5 987.6 TN 7.1
Ю 7
{11}
16 км 10/5 450 m
[Ac]
+17.2 +15.6 90 +16 +16 986.9 TN
Ю 6 16 км 8/5 420 m
[Ac]
+17.2 +15.6 90 +16 +16 994.3 987.3 TN
Ю 6
{11}
16 км 10/8 360 m
[Ac]
+16.7 +15.6 93 +16 +16 987.3 TN
Ю 5 16 км 8/8 450 м +16.7 +15.0 90 +16 +16 987.3 TN
Ю 5 16 км 10/10 450 м +16.7 +15.0 90 +16 +16 994.0 987.3 TN
Ю 5 16 км 10/10 270 м +16.7 +15.6 93 +16 +16 987.3 TN
Ю 6 3 км сильный дождь, дымка 10/10 300 m
[Ns]
+16.1 +15.0 93 +15 +15 993.7 986.9 TN +17.8 8.6 14.0
Ю 6 3 км сильный дождь, дымка 10/10 300 m
[Ns]
+16.1 +15.0 93 +15 +15 986.9 TN
Ю 6
{10}
5 км слабый дождь, дымка 10/10 300 m
[Ns]
+16.1 +15.0 93 +15 +15 986.9 TN
Ю 5
{10}
14 км 10/10 240 м +16.1 +15.0 93 +15 +15 986.9 TN
Ю 5
{9}
10 км слабый дождь, дымка 10/10 300 m
[Ns]
+16.7 +15.6 93 +16 +16 986.3 TN
Ю 5 11 км слабый дождь 10/10 240 m
[Ns]
+16.7 +15.6 93 +16 +16 986.3 TN
Ю 5 14 км 10/10 300 м +16.7 +16.1 96 +16 +16 985.9 TN
Ю 6 13 км 10/10 300 м +17.2 +16.1 93 +16 +16 992.8 985.9 TN
Ю 7 6 км гроза, дождь, дымка 10/10 420 m
[Cb]
+17.2 +15.6 90 +16 +16 985.6 TN
Ю 7
{13}
6 км дождь, дымка 10/10 330 m
[Ns]
+16.7 +15.6 93 +15 +15 992.5 985.6 TN
Ю 9
{13}
6 км слабый дождь, дымка 10/10 270 m
[Ns]
+16.7 +15.6 93 +15 +15 985.6 TN
Ю 6
{9}
16 км 8/8 390 m
[Ac]
+17.2 +16.1 93 +16 +17 992.0 984.9 TN 4.8
З 7
{14}
3 км сильный дождь, дымка 10/8 390 m
[Ac Ns]
+15.6 +13.9 90 +14 +14 985.6 TN
СЗ 6
{14}
2 км сильный дождь, дымка 10/10 390 m
[Ns]
+13.3 +11.7 90 +11 +11 985.6 TN
З 4
{13}
3 км слабый дождь, дымка 10/10 330 m
[Ns]
+13.3 +11.7 90 +12 +12 985.3 TN
З 4
{10}
13 км слабый дождь 10/10 330 m
[Ns]
+13.9 +12.2 89 +12 +12 985.6 TN
З 4 13 км слабый дождь 10/10 300 m
[Ns]
+13.9 +12.8 93 +12 +12 985.9 TN
З 4
{9}
14 км слабый дождь 10/10 300 m
[Ns]
+14.4 +13.3 93 +13 +13 993.1 985.9 TN
ЮЗ 9
{15}
13 км слабый дождь 10/10 300 m
[Ns]
+13.9 +12.2 89 +11 +11 986.6 TN
З 6
{12}
16 км слабый дождь 10/10 300 m
[Ns]
+13.3 +10.6 84 +11 +11 994.1 986.9 TN
З 6
{11}
16 км слабый дождь 10/2 1170 m
[Ac Ns]
+13.9 +10.6 80 +12 +13 986.9 TN
Местоположение метеостанции Mercer County Airport: широта 40.2764 долгота -74.8164 высота над уровнем моря 64 м.
В архиве по умолчанию представлена погода в Трентоне за последние 1-2 суток. Обновление информации о фактической погоде в базе происходит ежечасно! Архивные данные за месяц целиком и за предыдущие месяцы Вы можете получить, выбрав интересующий диапазон дат из раскрывающегося списка и нажав кнопку "Ввод!".
Внимание! Архив погоды МЕТАР в базе сайта по станциям, не включенным в климатический монитор, хранится не более 60 дней. Нет смысла пытаться выбрать более раннюю дату.
*Определитесь, кто Вы:
Внимание! Время в таблицах - местное (без учета летнего времени). Для получения всемирного времени необходимо вычесть поправку, которая равна -5 ч.
Смотрите также архив погоды в соседних городах и на ближайших метеорологических станциях:
Партнеры нашего сайта:      
Пояснения к столбцам:
  • Ветер - указаны скорость ветра в м/с - средняя за 10 мин, порывы в срок и между сроками (в фигурных скобках) и направление, откуда дует ветер: С - северный,
  • СВ - северо-восточный, В - восточный, ЮВ - юго-восточный, Ю - южный, ЮЗ - юго-западный, З - западный, СЗ - северо-западный.
  • Видимость - горизонтальная дальность видимости в метрах или километрах. При видимости от 1 до 10 км при отсутствии осадков обычно наблюдается дымка, при ухудшении видимости до 1 км и менее - туман. В сухую погоду видимость может ухудшаться дымом, пылью или мглою.
  • Явления - указаны атмосферные явления, наблюдавшиеся в срок или в последний час перед сроком; фигурными скобками обозначены явления, наблюдавшиеся между сроками (за 1-3 часа до срока); квадратными скобками обозначены град или гололедные отложения с указанием их диаметра в мм.
  • Облачность - указаны через наклонную черту общая и нижняя облачность в баллах и высота нижней границы облаков в метрах; квадратными скобками обозначены формы облаков: Ci - перистые, Cs - перисто-слоистые, Cc - перисто-кучевые, Ac - высококучевые, As - высокослоистые, Sc - слоисто-кучевые, Ns - слоисто-дождевые, Cu - кучевые, Cb - кучево-дождевые. Подробнее классификацию облаков см. в Атласе облаков (PDF).
  • T - Температура воздуха - температура, измеренная на высоте 2 м над землей.
  • Td - Температура точки росы - температура, при понижении до которой содержащийся в воздухе водяной пар достигнет насыщения.
  • f - Относительная влажность воздуха - влажноcть воздуха, измеренная на высоте 2 м над землей.
  • Te - Эффективная температура - температура, которую ощущает одетый по сезону человек в тени. Характеристика душности погоды. При расчете учитывается влияние влажности воздуха и скорости ветра на теплоощущения человека.
  • Tes - Эффективная температура на солнце - температура, которую ощущает человек, с поправкой на солнечный нагрев. Характеристика знойности погоды. Зависит от высоты солнца над горизонтом, облачности и скорости ветра. Ночью, в пасмурную погоду, а также при ветре 12 м/с и более поправка равна нулю.
  • P - Атмосферное давление - приведенное к уровню моря атмосферное давление.
  • Po - Атмосферное давление - измеренное на уровне метеостанции атмосферное давление.
  • Tmin - Минимальная температура - минимум температуры воздуха на высоте 2 м над землей.
  • Tmax - Максимальная температура - максимум температуры воздуха на высоте 2 м над землей.
  • R - Количество осадков - Количество выпавших осадков за период времени, мм. При наведении курсора мыши на число - период времени, за который выпало указанное количество осадков.
  • R24 - Количество осадков - Количество выпавших осадков за 24 часа, мм.
  • S - Снежный покров - Высота снежного покрова, см. При наведении курсора мыши на число - состояние снежного покрова и степень покрытия местности в баллах.